UAL1717 KLAX-KSAN

Flight info

Callsign UAL1717
Flight time N/A
Altitude 13000
Route LAXX1 MZB
Aircraft B738/M-SDE2E3FGHIRWXY/LB1

Departure

Time N/A
Airport Los Angeles International Airport (KLAX)

Arrival

Time 2026-04-24 18:56
Airport San Diego International Airport (KSAN)
Time Latitude Longitude Altitude Speed Heading
2026-04-24 18:54 32.71513 -117.11354 1394 ft 155 kts 282°
2026-04-24 18:55 32.72072 -117.13654 941 ft 138 kts 284°
2026-04-24 18:55 32.72332 -117.14731 725 ft 133 kts 283°
2026-04-24 18:55 32.72573 -117.15804 571 ft 137 kts 285°
2026-04-24 18:56 32.72857 -117.16935 329 ft 145 kts 284°
2026-04-24 18:56 32.73137 -117.18064 61 ft 139 kts 285°
2026-04-24 18:56 32.73385 -117.19087 21 ft 110 kts 286°
2026-04-24 18:56 32.73539 -117.19723 27 ft 49 kts 279°
2026-04-24 18:57 32.73509 -117.19830 25 ft 1 kts 226°
2026-04-24 18:57 32.73502 -117.19846 24 ft 3 kts 246°
2026-04-24 18:57 32.73494 -117.19878 22 ft 4 kts 257°
2026-04-24 18:57 32.73490 -117.19900 24 ft 0 kts 257°
2026-04-24 18:58 32.73489 -117.19903 23 ft 1 kts 257°
2026-04-24 18:58 32.73488 -117.19922 22 ft 5 kts 269°
2026-04-24 18:58 32.73498 -117.19984 23 ft 11 kts 286°
2026-04-24 18:58 32.73519 -117.20071 22 ft 2 kts 286°
2026-04-24 18:59 32.73528 -117.20113 22 ft 9 kts 287°
2026-04-24 18:59 32.73538 -117.20196 22 ft 11 kts 257°
2026-04-24 18:59 32.73508 -117.20274 22 ft 10 kts 266°
2026-04-24 18:59 32.73525 -117.20357 23 ft 10 kts 284°
2026-04-24 19:00 32.73520 -117.20403 22 ft 2 kts 248°
2026-04-24 19:00 32.73507 -117.20415 22 ft 3 kts 213°
2026-04-24 19:00 32.73486 -117.20418 22 ft 4 kts 180°
2026-04-24 19:00 32.73476 -117.20418 22 ft 0 kts 180°